TimePDT,TemperatureF,Dew PointF,Humidity,Sea Level PressureIn,VisibilityMPH,Wind Direction,Wind SpeedMPH,Gust SpeedMPH,PrecipitationIn,Events,Conditions,WindDirDegrees,DateUTC
12:53 AM,66.0,50.0,56,29.98,10.0,North,6.9,-,N/A,,Clear,10,2013-07-11 07:53:00
1:53 AM,63.0,48.0,58,29.99,10.0,North,6.9,-,N/A,,Clear,360,2013-07-11 08:53:00
2:53 AM,62.1,48.9,62,30.00,10.0,North,4.6,-,N/A,,Clear,10,2013-07-11 09:53:00
3:53 AM,59.0,48.0,67,30.00,10.0,NNE,3.5,-,N/A,,Clear,30,2013-07-11 10:53:00
4:53 AM,57.9,48.0,70,30.01,10.0,North,3.5,-,N/A,,Clear,10,2013-07-11 11:53:00
5:53 AM,55.9,48.0,75,30.02,10.0,NNE,3.5,-,N/A,,Clear,20,2013-07-11 12:53:00
6:53 AM,57.0,46.9,69,30.03,10.0,Variable,3.5,-,N/A,,Clear,0,2013-07-11 13:53:00
7:53 AM,59.0,46.0,62,30.04,10.0,North,10.4,-,N/A,,Clear,10,2013-07-11 14:53:00
8:53 AM,61.0,46.0,58,30.04,10.0,North,10.4,-,N/A,,Clear,10,2013-07-11 15:53:00
9:53 AM,63.0,46.9,56,30.03,10.0,NNE,6.9,-,N/A,,Clear,20,2013-07-11 16:53:00
10:53 AM,66.0,48.0,52,30.02,10.0,Variable,3.5,-,N/A,,Clear,0,2013-07-11 17:53:00
11:53 AM,71.1,48.0,44,30.01,10.0,NNE,10.4,18.4,N/A,,Clear,20,2013-07-11 18:53:00
12:53 PM,73.9,46.9,38,29.99,10.0,NNE,10.4,-,N/A,,Clear,20,2013-07-11 19:53:00
1:53 PM,78.1,46.9,33,29.97,10.0,NNE,11.5,17.3,N/A,,Clear,30,2013-07-11 20:53:00
2:53 PM,79.0,46.0,31,29.95,10.0,NE,5.8,19.6,N/A,,Clear,40,2013-07-11 21:53:00
3:53 PM,82.0,46.0,28,29.93,10.0,Variable,4.6,-,N/A,,Clear,0,2013-07-11 22:53:00
4:53 PM,82.9,45.0,26,29.92,10.0,NNE,13.8,21.9,N/A,,Clear,30,2013-07-11 23:53:00
5:53 PM,82.0,44.1,26,29.91,10.0,NNE,10.4,-,N/A,,Clear,30,2013-07-12 00:53:00
6:53 PM,82.0,41.0,23,29.91,10.0,NNE,10.4,19.6,N/A,,Clear,20,2013-07-12 01:53:00
7:53 PM,79.0,44.1,29,29.91,10.0,North,9.2,-,N/A,,Clear,350,2013-07-12 02:53:00
8:53 PM,73.9,50.0,43,29.92,10.0,NW,6.9,-,N/A,,Clear,310,2013-07-12 03:53:00
9:53 PM,71.1,50.0,47,29.94,10.0,Variable,4.6,-,N/A,,Clear,0,2013-07-12 04:53:00
10:53 PM,68.0,48.9,50,29.95,10.0,NNW,6.9,-,N/A,,Clear,330,2013-07-12 05:53:00
11:53 PM,64.9,48.9,56,29.97,10.0,Calm,Calm,-,N/A,,Clear,0,2013-07-12 06:53:00